Regional Weather Roundup
Issued by NWS Spokane, WA

Home | Current Version | Previous Version | Text Only | Print | Product List | Glossary On
Versions: 1 2 3 4 5 6 7 8 9 10 11 12 13 14 15 16 17 18 19 20 21 22 23 24 25 26 27 28 29 30 31 32 33 34 35 36 37 38 39 40 41 42 43 44 45 46 47 48 49 50
000
NZUS01 KOTX 221325
RWROTX

Eastern Washington/Northern Idaho Roundup
National Weather Service, Spokane WA
600 AM PDT SUN OCT 22 2017

Note: "fair" indicated few or no clouds below 12,000 feet with no
significant weather and/or obstructions to visibility.

...Northeast Washington and Northern Idaho Panhandle...

CITY           SKY/WX    TMP DP  RH WIND       PRES   REMARKS
Spokane Intl   DRIZZLE   50  48  93 SW18G26   29.77R
Spokane Downto LGT RAIN  52  50  93 SW8       29.79R
Coeur d Alene  RAIN      50  48  93 SW12      29.78R
Deer Park      CLOUDY    50  48  93 SW13G23   29.75S
Sandpoint      CLOUDY    50  46  87 S9G18     29.71S

...Southeast Washington and southern Idaho Panhandle...

CITY           SKY/WX    TMP DP  RH WIND       PRES   REMARKS
Walla Walla    CLOUDY    60  50  69 SW22G36   29.91R
Pullman/Moscow RAIN      52  48  86 SW25G33   29.88R
Lewiston       CLOUDY    58  46  64 SW17G24   29.89R
Lowell           N/A     42  41  96 N5        29.97S
Grangeville    CLOUDY    50  39  66 SW30G41   29.91R

...Columbia Basin...

CITY           SKY/WX    TMP DP  RH WIND       PRES   REMARKS
Ephrata        CLOUDY    49  44  83 SW15      29.79R
Moses Lake     CLOUDY    50  48  93 S6        29.80R
Pasco            N/A    N/A N/A N/A MISG        N/A
Richland       CLOUDY    61  54  77 S24G32    29.88R
Hermiston      CLOUDY    60  53  77 SW22G30   29.90R
Pendleton      LGT RAIN  57  50  77 SW16      29.95R

...East Slopes Cascades...

CITY           SKY/WX    TMP DP  RH WIND       PRES   REMARKS
The Dalles     LGT RAIN  55  54  96 CALM      29.94R
Yakima         CLOUDY    47  45  93 W5        29.84R
Ellensburg     LGT RAIN  49  43  80 NW23G30   29.85R
Stampede Pass  CLOUDY    38  36  92 SW13G32   29.88R
Wenatchee      CLOUDY    38  37  97 S7        29.82R
Omak           MOCLDY    41  41 100 SE9       29.77R
Chelan           N/A     39  36  87 S16         N/A
Sunnyside      CLOUDY    59  48  68 SW16      29.86R

...Southern British Columbia...

CITY           SKY/WX    TMP DP  RH WIND       PRES   REMARKS
Penticton      LGT RAIN  45  43  93 S16G28    29.71R
Castlegar      CLOUDY    36  36 100 SE2       29.73
Cranbrook      MOCLDY    34  32  93 CALM      29.66F FOG
Osoyoos          N/A     46  41  81 E6          N/A
Creston          N/A     34  34 100 NE1         N/A

...Western Montana...

CITY           SKY/WX    TMP DP  RH WIND       PRES   REMARKS
Kalispell      LGT RAIN  45  43  93 S7        29.73R
Libby            N/A     37  37 100 W3        29.70R
Missoula       LGT RAIN  49  39  68 VRB3      29.86S

...Neighboring Cities...

CITY           SKY/WX    TMP DP  RH WIND       PRES   REMARKS
Seattle        PTCLDY    54  49  83 S13G22    29.91R
Portland       CLOUDY    56  55  97 S5        30.05R
Boise          CLOUDY    47  40  76 SE13      30.21R
Great Falls    CLOUDY    52  34  50 SW21G32   29.70R
Calgary        CLEAR     39  23  52 W3        29.39R



USA.gov is the U.S. government's official web portal to all federal, state and local government web resources and services.